Total_Precipitation_Accumulation
0.26 0.49 0.63 0.56 0.32 0.21 0.01 0.00 0.00 0.01 0.04 0.05 0.03 0.02 0.15 0.11 0.02 0.02 0.01 0.00 0.01 0.03 0.04 0.12 0.33 0.47 0.67 0.72 0.38 0.29 0.24 0.28 0.32 0.47 0.42 0.46 0.26 0.23 0.18 0.13 0.11 0.14 0.13 0.28 0.64 0.77 0.68 0.18 0.04
0.53 0.65 0.74 0.56 0.35 0.12 0.01 0.00 0.00 0.02 0.01 0.04 0.06 0.06 0.15 0.11 0.01 0.02 0.04 0.02 0.00 0.01 0.05 0.08 0.21 0.41 0.62 0.84 0.75 0.35 0.28 0.30 0.34 0.43 0.62 0.72 0.38 0.40 0.28 0.17 0.22 0.19 0.25 0.42 0.48 0.74 0.19 0.01 0.01
0.67 0.81 0.87 0.75 0.35 0.08 0.00 0.00 0.00 0.00 0.01 0.02 0.05 0.06 0.17 0.10 0.04 0.02 0.02 0.04 0.01 0.01 0.02 0.09 0.20 0.29 0.60 0.73 0.87 0.72 0.58 0.48 0.42 0.51 0.64 0.51 0.42 0.38 0.31 0.27 0.28 0.23 0.31 0.24 0.34 0.60 0.11 0.04 0.03
0.86 1.21 1.56 0.85 0.42 0.05 0.00 0.00 0.00 0.00 0.03 0.04 0.11 0.18 0.14 0.15 0.07 0.04 0.02 0.03 0.02 0.03 0.04 0.15 0.31 0.40 0.54 0.74 0.77 0.89 0.86 0.74 0.71 0.51 0.44 0.38 0.52 0.48 0.44 0.52 0.40 0.21 0.28 0.17 0.31 0.39 0.22 0.12 0.07
0.90 1.70 1.24 0.93 0.43 0.11 0.00 0.00 0.00 0.00 0.02 0.07 0.16 0.27 0.27 0.19 0.23 0.07 0.05 0.04 0.03 0.05 0.07 0.12 0.43 0.62 0.64 0.72 0.69 0.82 0.89 0.93 0.98 0.80 0.47 0.40 0.51 0.40 0.41 0.36 0.35 0.28 0.28 0.17 0.21 0.30 0.30 0.19 0.14
1.34 1.47 1.44 0.74 0.34 0.10 0.03 0.00 0.00 0.00 0.00 0.02 0.15 0.40 0.59 0.45 0.48 0.34 0.17 0.12 0.07 0.06 0.09 0.13 0.29 0.53 0.73 0.73 0.82 0.95 1.00 1.10 1.23 1.01 0.94 0.94 0.65 0.39 0.38 0.25 0.20 0.25 0.25 0.19 0.15 0.22 0.37 0.31 0.18
1.51 1.04 1.38 0.58 0.21 0.12 0.07 0.02 0.03 0.04 0.01 0.01 0.11 0.48 0.72 0.92 0.86 0.67 0.41 0.29 0.22 0.10 0.09 0.15 0.20 0.40 0.59 0.70 0.72 0.97 1.20 1.23 1.23 1.08 0.95 1.01 0.81 0.51 0.43 0.31 0.22 0.18 0.21 0.17 0.20 0.22 0.31 0.37 0.31
1.15 1.65 0.59 0.69 0.18 0.12 0.07 0.04 0.02 0.06 0.06 0.01 0.11 0.45 0.94 1.34 1.28 0.95 0.74 0.49 0.38 0.26 0.17 0.14 0.14 0.32 0.48 0.63 0.59 0.75 0.98 1.05 1.10 1.01 0.80 0.65 0.51 0.42 0.48 0.50 0.42 0.30 0.22 0.18 0.17 0.16 0.20 0.30 0.39
1.34 1.97 0.87 0.32 0.34 0.10 0.09 0.25 0.03 0.03 0.14 0.05 0.06 0.21 0.52 1.49 1.96 1.37 0.98 0.93 0.73 0.60 0.35 0.21 0.16 0.19 0.41 0.59 0.66 0.61 0.55 0.76 0.76 0.78 0.72 0.75 0.67 0.80 0.77 0.67 0.67 0.62 0.51 0.29 0.20 0.15 0.16 0.26 0.31
1.55 1.37 0.62 0.25 0.35 0.27 0.25 0.38 0.17 0.09 0.15 0.36 0.24 0.20 0.54 1.67 2.64 1.96 1.21 1.03 1.08 0.78 0.61 0.38 0.23 0.18 0.23 0.35 0.69 0.74 0.72 0.58 0.50 0.45 0.40 0.39 0.75 0.95 0.80 0.96 1.15 1.12 1.01 0.94 0.66 0.44 0.21 0.15 0.16
1.30 0.76 0.56 0.47 0.45 0.54 0.28 0.17 0.21 0.25 0.17 0.35 0.22 0.37 0.83 1.67 4.05 3.53 2.29 1.36 1.47 1.43 0.99 0.46 0.20 0.18 0.16 0.23 0.49 0.57 0.60 0.53 0.46 0.35 0.24 0.18 0.32 0.66 1.00 1.03 1.05 1.10 1.11 1.27 2.20 1.36 0.69 0.31 0.16
1.37 0.83 0.86 0.76 0.83 0.59 0.35 0.22 0.14 0.15 0.04 0.11 0.62 0.66 0.98 1.28 4.08 4.91 5.10 4.20 2.86 2.27 1.70 1.54 0.60 0.33 0.23 0.19 0.28 0.37 0.43 0.44 0.33 0.27 0.28 0.16 0.18 0.28 0.36 0.60 0.82 0.73 0.69 0.68 1.77 2.98 2.08 1.20 0.50
1.43 1.25 0.78 0.85 0.64 0.50 0.28 0.38 0.15 0.04 0.03 0.19 0.40 0.65 0.72 1.39 2.18 3.85 4.05 4.83 4.15 2.91 2.09 1.10 1.19 0.84 0.45 0.32 0.28 0.29 0.35 0.35 0.25 0.42 0.33 0.19 0.13 0.14 0.17 0.24 0.41 0.54 0.55 0.52 0.41 1.13 2.20 2.75 1.97
1.22 1.56 0.94 0.76 0.65 0.33 0.25 0.24 0.23 0.07 0.12 0.42 0.39 0.59 0.84 0.99 1.37 2.17 2.35 2.84 3.90 3.43 2.69 1.91 0.76 0.80 0.61 0.37 0.39 0.28 0.26 0.27 0.37 0.34 0.30 0.22 0.11 0.10 0.13 0.15 0.13 0.24 0.40 0.54 0.56 0.50 0.58 1.08 1.36
0.76 1.68 1.34 0.78 0.84 0.41 0.29 0.39 0.33 0.05 0.18 0.51 0.67 0.74 1.31 0.97 1.00 1.55 1.58 1.93 2.38 3.10 2.54 2.21 1.22 0.71 0.57 0.31 0.32 0.35 0.32 0.23 0.26 0.18 0.24 0.34 0.17 0.11 0.10 0.07 0.08 0.12 0.19 0.33 0.35 0.35 0.38 0.42 0.53
0.50 1.33 1.70 0.95 0.92 0.71 0.44 0.21 0.11 0.12 0.11 0.31 0.47 0.69 1.24 0.90 0.72 0.81 1.29 1.64 1.95 2.42 2.46 2.59 1.53 0.93 0.60 0.39 0.30 0.32 0.33 0.27 0.28 0.21 0.27 0.31 0.23 0.13 0.08 0.08 0.10 0.09 0.08 0.12 0.16 0.18 0.20 0.20 0.31
0.41 0.57 1.01 1.10 0.81 0.89 0.42 0.19 0.07 0.20 0.11 0.11 0.20 0.39 1.03 1.05 0.84 0.46 0.57 1.06 1.50 2.47 2.34 2.68 2.29 1.22 0.74 0.77 0.58 0.52 0.38 0.26 0.21 0.21 0.24 0.32 0.28 0.24 0.14 0.06 0.08 0.12 0.18 0.14 0.10 0.08 0.08 0.08 0.09
0.29 0.30 0.31 0.56 0.71 0.68 0.52 0.25 0.12 0.08 0.19 0.03 0.08 0.21 0.61 0.93 0.89 0.68 0.66 0.77 1.00 1.72 2.60 2.58 2.94 2.34 1.34 1.24 1.17 0.89 0.56 0.31 0.26 0.25 0.22 0.41 0.30 0.24 0.23 0.13 0.09 0.12 0.14 0.12 0.14 0.16 0.12 0.08 0.10
0.15 0.19 0.20 0.16 0.26 0.51 0.52 0.28 0.19 0.13 0.12 0.10 0.05 0.23 0.62 1.06 0.98 0.81 0.78 0.89 0.94 1.05 2.30 2.15 2.79 2.77 2.34 1.71 1.34 0.97 0.75 0.77 0.46 0.43 0.52 0.55 0.50 0.40 0.31 0.20 0.24 0.24 0.21 0.17 0.16 0.19 0.19 0.17 0.22
0.16 0.13 0.09 0.13 0.16 0.23 0.31 0.14 0.33 0.30 0.13 0.20 0.21 0.42 0.75 0.83 0.67 0.51 0.57 0.89 0.93 0.80 1.71 2.35 2.47 2.80 2.26 1.94 1.56 1.41 1.23 1.16 1.14 0.95 0.90 1.06 1.06 1.02 0.76 0.50 0.43 0.48 0.43 0.38 0.33 0.28 0.29 0.44 0.67
0.18 0.09 0.06 0.09 0.10 0.11 0.11 0.06 0.10 0.11 0.10 0.06 0.12 0.30 0.57 0.77 0.39 0.43 0.39 0.52 1.39 1.10 0.83 1.58 2.43 2.77 2.22 2.44 2.64 2.54 2.38 2.09 1.65 1.30 1.29 1.27 1.30 1.63 1.53 1.18 0.86 0.85 0.68 0.66 0.57 0.57 0.78 0.97 0.70
0.25 0.12 0.04 0.08 0.14 0.15 0.06 0.11 0.06 0.06 0.13 0.09 0.19 0.44 0.72 0.53 0.62 0.58 0.40 0.31 0.53 0.99 0.90 0.94 1.58 2.66 2.57 2.64 3.40 2.78 1.63 1.61 1.80 1.57 1.70 1.55 1.24 1.44 1.49 1.41 1.32 1.48 1.38 1.26 1.25 1.14 1.26 1.32 1.09
0.28 0.12 0.04 0.13 0.18 0.19 0.12 0.21 0.16 0.14 0.40 0.45 0.94 0.81 1.55 1.28 1.41 1.17 0.48 0.47 0.60 0.70 0.75 0.69 1.15 1.74 2.58 2.42 2.50 3.06 2.60 1.70 1.60 1.45 1.35 1.08 1.17 1.05 1.15 1.37 1.57 1.61 1.79 1.81 1.69 1.53 1.60 1.80 1.61
0.28 0.28 0.25 0.20 0.51 0.55 0.12 0.22 0.19 0.14 0.26 0.20 0.52 0.69 1.57 2.08 1.81 1.64 1.64 0.98 0.83 0.90 0.92 0.70 0.98 1.24 1.65 2.21 1.84 1.96 2.55 2.81 2.36 1.72 1.58 1.61 1.40 1.57 1.38 1.44 1.66 1.79 1.62 1.68 2.02 2.22 1.99 1.55 1.41
0.73 0.98 1.33 0.97 1.15 0.66 0.07 0.08 0.23 0.04 0.07 0.18 0.62 0.88 1.68 2.36 2.10 2.14 2.24 2.07 1.97 1.73 1.28 0.97 0.80 1.54 1.12 1.77 1.43 1.33 1.39 1.78 2.09 2.26 2.01 1.75 1.62 1.47 1.54 1.61 1.34 1.52 1.61 1.54 1.54 1.50 1.57 1.72 1.65
0.91 1.09 1.35 0.98 0.53 0.29 0.06 0.16 0.14 0.01 0.01 0.06 0.56 0.74 1.39 1.69 2.11 1.55 1.90 2.10 1.83 1.61 0.96 0.46 0.57 1.57 1.33 1.15 1.07 1.08 1.39 1.09 1.22 1.40 1.62 1.80 1.45 1.33 1.38 1.49 1.85 1.50 1.47 1.57 1.41 1.40 1.35 1.31 1.33
1.16 1.21 0.72 0.89 0.44 0.35 0.16 0.02 0.01 0.00 0.00 0.00 0.16 0.66 1.35 1.28 1.28 1.44 1.82 1.65 1.29 0.68 0.95 0.68 0.62 0.61 1.23 1.24 1.16 1.04 1.32 1.02 0.85 0.92 0.98 0.98 1.13 1.23 1.32 1.35 1.39 1.81 1.94 1.76 2.19 2.01 1.72 1.87 1.72
0.98 0.64 0.89 1.36 0.88 0.41 0.16 0.09 0.10 0.00 0.00 0.00 0.01 0.15 0.29 0.58 0.73 0.86 0.98 1.29 1.09 0.91 1.33 0.95 0.74 0.74 0.70 1.44 1.18 1.56 1.47 1.19 1.03 0.89 0.84 0.93 0.89 0.87 1.09 1.35 1.34 1.30 1.50 1.84 1.75 2.26 2.36 1.80 1.77
0.95 1.19 0.73 0.91 0.48 0.55 0.34 0.30 0.10 0.00 0.00 0.00 0.00 0.01 0.02 0.08 0.22 0.19 0.13 0.15 0.44 0.66 0.91 0.81 0.81 0.71 0.77 0.95 1.43 1.98 2.86 1.50 1.43 1.20 0.84 0.88 0.92 0.77 0.81 0.90 1.13 1.21 1.21 1.24 1.42 1.54 1.90 2.38 2.04
0.53 0.62 0.74 0.86 0.48 0.43 0.53 0.46 0.02 0.00 0.00 0.00 0.01 0.02 0.01 0.00 0.02 0.10 0.06 0.03 0.13 0.33 0.49 0.96 1.13 1.09 1.43 1.33 1.67 1.77 1.94 2.62 1.89 1.93 1.68 1.15 0.92 0.77 0.75 0.83 0.85 1.00 0.97 1.21 1.40 1.37 1.59 1.68 1.80